Погода в Красноармейском

Россия / Чувашская Республика     55°46′06″N   47°10′09″E
темп.,
°C
ветер,
м/с
пор.,
м/с
влажн.,
%
обл.,
%
осадки,
мм/ч
давл.,
гПа
погр.,
м
28 января, чт
чт2800:00−3ю71391100 0.0 1016550
03:00−2ю61292100 0.0 1015561
06:00−3ю51288100 0.0 1015491
09:00−3ю61089100 0.1 1015439
12:00−3ююв51088100 0.0 1014387
15:00−5ююв5991100 0.0 1014336
18:00−6ююв51192100 0.0 1014323
21:00−8ююв4109399 0.0 1013266
29 января, пт
пт2900:00−10ююв4109596 0.0 1013210
03:00−10ююв479597 0.0 1012183
06:00−9юв4995100 0.0 1011255
09:00−6ююв51094100 0.1 1010366
12:00−4ююв599398 0.1 1009542
15:00−4ююв499499 0.1 1007391
18:00−4ююв599699 0.2 1007342
21:00−3ююв4896100 0.3 1005280
30 января, сб
сб3000:00−3ю4895100 0.3 1005333
03:00−3ю4995100 0.3 1004245
06:00−6ю4109367 0.0 1003207
09:00−6ю5119471 0.0 1003340
12:00−3ююв61191100 0.0 1001523
15:00−1ююв81396100 1.5 999809
18:00−1юз81490100 0.8 1001756
21:00−6юз6128980 0.8 1004348
31 января, вс
вс3100:00−7ююз4129298 0.0 1007285
03:00−7ю379299 0.0 1007158
06:00−6ююв51191100 0.0 1005292
09:00−3ююв81595100 0.3 1003562
12:00+1ю81599100 0.3 1002848
15:000ююв112090100 0.6 9991138
18:00−1ююв111895100 1.6 997982
21:00−2ю91695100 3.7 993893
1 февраля, пн
пн100:00−1ююз91591100 0.5 992788
03:00−2юз101893100 1.1 995829
06:00−4з101888100 0.3 1001821
09:00−6зюз81589100 0.3 1008714
12:00−6зюз71290100 0.1 1012607
15:00−7юз5119095 0.1 1014408
18:00−8ююз4109495 0.0 1016208
21:00−8ю379398 0.0 1016209